World > North America > United States > Texas > Leesville

Hourly Leesville, TX Regional Weather

Feedback E-mail the Weather

Quick WX

Leesville, TX Weather Maps

°F °C°F °C
Leesville Weather Map
UTC Time: 8/17/2022, 19:50
Your Time:

Leesville, TX Regional Weather

Expires:202208172000;;211317
ASUS44 KSJT 171915
RWRSJT
WEST CENTRAL TEXAS REGIONAL WEATHER ROUNDUP
NATIONAL WEATHER SERVICE SAN ANGELO TX
200 PM CDT WED AUG 17 2022

NOTE: "FAIR" INDICATES FEW OR NO CLOUDS BELOW 12,000 FEET WITH NO
SIGNIFICANT WEATHER AND/OR OBSTRUCTIONS TO VISIBILITY.


TXZ145-158-159-173-191-192-194-205-207-220-223-172000-
CENTRAL AND SOUTH CENTRAL TEXAS
  
CITY           SKY/WX    TMP DP  RH WIND       PRES   REMARKS
AUSTIN/BERGSTM MOSUNNY   98  66  34 VRB3      29.96F                  
WACO           PTSUNNY  100  66  32 CALM      29.95F                  
HILLSBORO      PTCLDY   100  66  32 W9        29.94F                  
TEMPLE         MOSUNNY  100  66  32 NW3         N/A                   
KILLEEN-GRAY   PTSUNNY   96  62  32 CALM      29.95F                  
FORT HOOD      MOSUNNY   98  64  32 E3        29.98F HAZE             
GEORGETOWN     MOSUNNY  100  64  30 NW5       29.99F                  
LAGO VISTA     FAIR     103  64  27 NW3       30.01F                  
SAN MARCOS     MOSUNNY   95  67  39 VRB3      29.98F                  
NEW BRAUNFELS  MOSUNNY   96  68  39 VRB3      29.97F                  
RANDOLPH AFB   MOSUNNY   94  67  40 SW6       29.97F                  
SAN ANTONIO    MOSUNNY   93  67  42 VRB7      30.00F                  
STINSON        MOSUNNY   95  43  16 VRB6      29.96F                  
PLEASANTON     NOT AVBL                                               
LA GRANGE      MOSUNNY   97  67  37 CALM      29.94F                  
GIDDINGS       PTCLDY    95  66  37 CALM      29.97F                  
$$


SKY/WX - Weather  TMP - Temperature  DP - Dew Point  RH - Humidity
WIND - Wind Direction/Speed PRES - Barometric Pressure VSB - Visibility
WCI - Wind Chill Index E13G22 Wind - East Wind 13 mph/Gusts of 22 mph

Trending Headlines

Leesville Radar Loop



Leesville Quick Facts


National Two Day Weather Forecast


E-mail the Leesville Weather Forecast

Voice your opinion or tell us about page issues...